Regional Weather Roundup
Issued by NWS Mt. Holly, NJ

Current Version | Previous Version | Text Only | Print | Product List | Glossary On
Versions: 1 2 3 4 5 6 7 8 9 10 11 12 13 14 15 16 17 18 19 20 21 22 23 24 25 26 27
000
ASUS41 KPHI 160012
RWRPHI

REGIONAL WEATHER ROUNDUP
NATIONAL WEATHER SERVICE MOUNT HOLLY NJ
800 PM EDT FRI OCT 15 2021

NOTE:  "FAIR" INDICATES FEW OR NO CLOUDS BELOW 12,000 FEET WITH NO
SIGNIFICANT WEATHER AND/OR OBSTRUCTIONS TO VISIBILITY.

 * = STATION DOES NOT REPORT PRECIPITATION (E.G. RAIN, SNOW, ETC.)
        OR FOG.

NJZ015>026-160100-
SOUTHERN NEW JERSEY

CITY           SKY/WX    TMP DP  RH WIND       PRES   REMARKS
POMONA         PTCLDY    70  60  70 S8        29.90F
6HR MIN TEMP:  69; 6HR MAX TEMP:  82;

WILDWOOD*        N/A     70  63  78 S10       29.91F
MILLVILLE      PTCLDY    69  60  73 VRB5      29.89F
WRIGHTSTOWN    PTCLDY    70  63  79 S7        29.88F
MOUNT HOLLY    PTCLDY    72  63  73 VRB3      29.88S
TRENTON        PTCLDY    72  65  78 S3        29.88S
6HR MIN TEMP:  71; 6HR MAX TEMP:  80;


$$
NJZ001>014-160100-
NORTHERN NEW JERSEY

CITY           SKY/WX    TMP DP  RH WIND       PRES   REMARKS
SUSSEX         PTCLDY    69  66  90 CALM      29.88F
ANDOVER*         N/A     69  67  93 CALM      29.87F
MORRISTOWN     CLEAR     66  66 100 CALM      29.88S
NEWARK         PTCLDY    75  62  64 S5        29.87F
TETERBORO      PTCLDY    72  61  68 S6        29.86F
CALDWELL       CLEAR     73  63  70 CALM      29.87F
SOMERVILLE     PTCLDY    67  66  97 CALM      29.85F
ALLAIRE*       CLEAR     69  62  78 S5        29.90F

$$
PAZ043-044-047-054-055-060>062-066>071-160100-
EASTERN PENNSYLVANIA

CITY           SKY/WX    TMP DP  RH WIND       PRES   REMARKS
PHILADELPHIA   MOCLDY    74  62  66 S9G18     29.89R
6HR MIN TEMP:  74; 6HR MAX TEMP:  82;

NORTH PHILA    PTCLDY    75  64  68 VRB3      29.89S
DOYLESTOWN     PTCLDY    73  64  73 S3        29.88S
QUAKERTOWN*    CLEAR     73  68  83 SE3       29.88F
PERKASIE*      FAIR      72  68  88 CALM      29.90S
POTTSTOWN      PTCLDY    71  64  78 CALM      29.90S
LANCASTER      PTCLDY    74  65  73 S9        29.86F
COATESVILLE    PTCLDY    70  66  88 CALM      29.90F
WEST CHESTER   FAIR      72  64  78 CALM      29.90S
READING        PTCLDY    75  67  76 S7        29.85F
6HR MIN TEMP:  75; 6HR MAX TEMP:  84;

ALLENTOWN      PTCLDY    75  65  70 S8        29.86F
6HR MIN TEMP:  75; 6HR MAX TEMP:  82;

QN CITY/ALNTWN FAIR      73  66  78 S8        29.87F
MOUNT POCONO   PTCLDY    68  65  90 S6        29.91F
6HR MIN TEMP:  67; 6HR MAX TEMP:  76;

HAZLETON       PTCLDY    72  64  78 S5        29.92F
LEHIGHTON      MOCLDY    68  64  88 CALM      29.87S
WILKES BARRE   CLEAR     75  66  73 SW6       29.86F

$$
DEZALL-MDZ008-012-015-019-020-160100-
DELAWARE AND EASTERN MARYLAND

CITY           SKY/WX    TMP DP  RH WIND       PRES   REMARKS
WILMINGTON     PTCLDY    71  64  78 S10       29.89F
6HR MIN TEMP:  71; 6HR MAX TEMP:  81;

DOVER          PTCLDY    69  62  78 S6        29.88F
CHESWOLD       PTCLDY    72  64  78 SW5       29.89F
GEORGETOWN     MOCLDY    71  64  78 SW3       29.92S
6HR MIN TEMP:  69; 6HR MAX TEMP:  84;

EASTON         CLEAR     72  66  83 CALM      29.94F
ABERDEEN       PTCLDY    69  64  84 S3        29.85F
PATUXENT       PTCLDY    73  61  65 S6        29.90F
OCEAN CITY     PTCLDY    69  64  84 SW3       29.93S
WALLOPS ISLAND CLEAR     68  65  90 S7        29.93F
CAMBRIDGE      CLEAR     68  66  94 SE6       29.91F FOG
SALISBURY      PTCLDY    68  64  87 SW5       29.93R

$$
PAZ001-021-NYZ056-072-MDZ011-DCZ001-160100-
OTHER NEARBY LOCATIONS

CITY           SKY/WX    TMP DP  RH WIND       PRES   REMARKS
HARRISBURG     MOCLDY    76  65  68 S6        29.84S
STATE COLLEGE  PTCLDY    72  66  83 SW5       29.86S
WILLIAMSPORT   MOCLDY    76  66  71 S6        29.81R
BINGHAMTON     CLOUDY    71  64  78 S6        29.85F
NEW YORK CITY  CLEAR     71  61  70 CALM      29.90F
BALTIMORE      MOCLDY    74  64  71 S5        29.87F
WASHINGTON DC  MOCLDY    72  65  78 S5        29.89F

$$



USA.gov is the U.S. government's official web portal to all federal, state and local government web resources and services.